Weather History for Canon City Fremont County, CO

Change the Weather History Date:

Tuesday, January 14, 2014

  Actual Average (KPUB) Record (KPUB)
Temperature  
Mean Temperature 34 °F 30 °F  
Max Temperature 46 °F 47 °F 67 °F (2006)
Min Temperature 21 °F 14 °F -15 °F (1979)
Degree Days  
Heating Degree Days 30 35  
Month to date heating degree days 490  
Since 1 July heating degree days 2853  
Cooling Degree Days 0 0  
Month to date cooling degree days 0  
Year to date cooling degree days 0  
Moisture  
Dew Point 16 °F    
Average Humidity 47    
Maximum Humidity 80    
Minimum Humidity 27    
Precipitation  
Precipitation 0.00 in 0.01 in 0.35 in (1960)
Month to date precipitation 0.15  
Year to date precipitation 0.15  
Snow  
Snow 0.00 in 0.30 in 5.90 in (1959)
Month to date snowfall 2.9  
Since 1 July snowfall 14.4  
Snow Depth -    
Sea Level Pressure  
Sea Level Pressure 30.24 in    
Wind  
Wind Speed 12 mph (NW)    
Max Wind Speed 22 mph    
Max Gust Speed 30 mph    
Visibility 10 miles    
Events      
T = Trace of Precipitation, MM = Missing Value Source: NWS Daily Summary

Daily Weather History Graph

Daily Weather History Graph

Search for Another Location

Airport:

Trip Planner

Search our weather history database for the weather conditions in past years. The results will help you decide how hot, cold, wet, or windy it might be!

Date:

Astronomy

Jan. 14, 2014 Rise Set
Actual Time 7:16 AM MST 5:02 PM MST
Civil Twilight 6:47 AM MST 5:31 PM MST
Nautical Twilight 6:14 AM MST 6:04 PM MST
Astronomical Twilight 5:43 AM MST 6:36 PM MST
Moon 4:09 PM MST (1/14) 5:53 AM MST (1/14)
Length of Visible Light 10h 44m
Length of Day
9h 46m
Waxing Gibbous, 98% of the Moon is Illuminated
Jan 14
Waxing Gibbous
Jan 15
Full
Jan 23
Last Quarter
Jan 30
New
Feb 6
First Quarter

Hourly Weather History & Observations

Time (MST) Temp. Windchill Dew Point Humidity Pressure Visibility Wind Dir Wind Speed Gust Speed Precip Events Conditions
12:15 AM 42.8 °F 33.8 °F 10.4 °F 27% 30.01 in 10.0 mi NW 21.9 mph 29.9 mph N/A   Clear
12:35 AM 42.8 °F 36.2 °F 12.2 °F 29% 30.04 in 10.0 mi NW 12.7 mph 20.7 mph N/A   Clear
12:55 AM 42.8 °F 35.4 °F 10.4 °F 27% 30.03 in 10.0 mi NW 15.0 mph 20.7 mph N/A   Clear
1:15 AM 42.8 °F 35.4 °F 10.4 °F 27% 30.04 in 10.0 mi NW 15.0 mph 23.0 mph N/A   Clear
1:35 AM 42.8 °F 34.8 °F 12.2 °F 29% 30.05 in 10.0 mi NW 17.3 mph 21.9 mph N/A   Clear
1:55 AM 42.8 °F 34.3 °F 12.2 °F 29% 30.06 in 10.0 mi WNW 19.6 mph 26.5 mph N/A   Clear
2:15 AM 37.4 °F 33.8 °F 12.2 °F 36% 30.06 in 10.0 mi West 4.6 mph - N/A   Clear
2:35 AM 35.6 °F 27.5 °F 12.2 °F 38% 30.08 in 10.0 mi WNW 11.5 mph - N/A   Clear
2:55 AM 37.4 °F 29.3 °F 12.2 °F 36% 30.08 in 10.0 mi WNW 12.7 mph - N/A   Clear
3:15 AM 42.8 °F 35.1 °F 12.2 °F 29% 30.09 in 10.0 mi NNW 16.1 mph 23.0 mph N/A   Clear
3:35 AM 42.8 °F 34.0 °F 12.2 °F 29% 30.09 in 10.0 mi NNW 20.7 mph 25.3 mph N/A   Clear
3:55 AM 42.8 °F 34.8 °F 12.2 °F 29% 30.10 in 10.0 mi NW 17.3 mph 25.3 mph N/A   Clear
4:15 AM 41.0 °F 33.1 °F 12.2 °F 31% 30.12 in 10.0 mi NW 15.0 mph 25.3 mph N/A   Clear
4:35 AM 39.2 °F 30.5 °F 14.0 °F 36% 30.12 in 10.0 mi WNW 16.1 mph - N/A   Clear
4:55 AM 37.4 °F 27.8 °F 14.0 °F 38% 30.13 in 10.0 mi WNW 17.3 mph - N/A   Clear
5:15 AM 37.4 °F 28.5 °F 14.0 °F 38% 30.14 in 10.0 mi WNW 15.0 mph - N/A   Clear
5:35 AM 35.6 °F 26.2 °F 14.0 °F 41% 30.15 in 10.0 mi WNW 15.0 mph - N/A   Clear
5:55 AM 39.2 °F 30.2 °F 15.8 °F 39% 30.17 in 10.0 mi NW 17.3 mph 21.9 mph N/A   Clear
6:15 AM 37.4 °F 28.9 °F 15.8 °F 41% 30.17 in 10.0 mi NW 13.8 mph - N/A   Clear
6:25 AM 37.4 °F 27.8 °F 15.8 °F 41% 30.17 in 10.0 mi WNW 17.3 mph 20.7 mph N/A   Clear
7:15 AM 35.6 °F 26.6 °F 15.8 °F 44% 30.21 in 10.0 mi WNW 13.8 mph - N/A   Clear
7:35 AM 35.6 °F 28.0 °F 15.8 °F 44% 30.21 in 10.0 mi WNW 10.4 mph - N/A   Clear
7:55 AM 35.6 °F 28.0 °F 15.8 °F 44% 30.23 in 10.0 mi WNW 10.4 mph - N/A   Clear
8:15 AM 37.4 °F 32.8 °F 15.8 °F 41% 30.24 in 10.0 mi West 5.8 mph - N/A   Clear
8:35 AM 41.0 °F 35.8 °F 17.6 °F 39% 30.25 in 10.0 mi WNW 8.1 mph - N/A   Clear
8:55 AM 42.8 °F 37.5 °F 17.6 °F 36% 30.26 in 10.0 mi WNW 9.2 mph - N/A   Clear
9:15 AM 42.8 °F 38.0 °F 17.6 °F 36% 30.27 in 10.0 mi West 8.1 mph - N/A   Clear
9:35 AM 44.6 °F 39.7 °F 15.8 °F 31% 30.28 in 10.0 mi West 9.2 mph - N/A   Clear
9:55 AM 46.4 °F 41.9 °F 14.0 °F 27% 30.29 in 10.0 mi West 9.2 mph - N/A   Clear
10:15 AM 46.4 °F 39.5 °F 14.0 °F 27% 30.29 in 10.0 mi WNW 17.3 mph 21.9 mph N/A   Clear
10:35 AM 46.4 °F 41.1 °F 14.0 °F 27% 30.29 in 10.0 mi WNW 11.5 mph 19.6 mph N/A   Scattered Clouds
10:55 AM 44.6 °F 40.7 °F 19.4 °F 37% 30.31 in 10.0 mi SSE 6.9 mph - N/A   Mostly Cloudy
11:15 AM 41.0 °F - 23.0 °F 49% 30.31 in 10.0 mi Calm Calm - N/A   Scattered Clouds
11:35 AM 44.6 °F 39.7 °F 23.0 °F 43% 30.29 in 10.0 mi SE 9.2 mph - N/A   Mostly Cloudy
11:55 AM 42.8 °F 41.1 °F 21.2 °F 42% 30.29 in 10.0 mi North 3.5 mph - N/A   Mostly Cloudy
12:15 PM 42.8 °F 34.5 °F 21.2 °F 42% 30.28 in 10.0 mi SE 18.4 mph 23.0 mph N/A   Mostly Cloudy
12:35 PM 42.8 °F 33.8 °F 21.2 °F 42% 30.28 in 10.0 mi SE 21.9 mph - N/A   Mostly Cloudy
12:55 PM 41.0 °F 33.5 °F 21.2 °F 45% 30.29 in 10.0 mi ESE 13.8 mph 23.0 mph N/A   Mostly Cloudy
4:15 PM 39.2 °F 31.2 °F 19.4 °F 45% 30.34 in 10.0 mi ESE 13.8 mph - N/A   Clear
4:35 PM 37.4 °F 28.9 °F 19.4 °F 48% 30.34 in 10.0 mi ESE 13.8 mph - N/A   Clear
4:55 PM 35.6 °F 28.6 °F 19.4 °F 52% 30.36 in 10.0 mi East 9.2 mph - N/A   Clear
5:15 PM 33.8 °F 27.0 °F 19.4 °F 56% 30.36 in 10.0 mi East 8.1 mph - N/A   Clear
5:35 PM 32.0 °F 26.4 °F 19.4 °F 60% 30.36 in 10.0 mi ENE 5.8 mph - N/A   Clear
5:55 PM 32.0 °F 28.7 °F 17.6 °F 55% 30.37 in 10.0 mi North 3.5 mph - N/A   Clear
6:15 PM 32.0 °F 28.7 °F 17.6 °F 55% 30.37 in 10.0 mi NE 3.5 mph - N/A   Clear
6:35 PM 32.0 °F 28.7 °F 17.6 °F 55% 30.36 in 10.0 mi ESE 3.5 mph - N/A   Clear
6:55 PM 32.0 °F - 19.4 °F 60% 30.36 in 10.0 mi Calm Calm - N/A   Clear
7:15 PM 32.0 °F - 19.4 °F 60% 30.36 in 10.0 mi Calm Calm - N/A   Clear
7:35 PM 30.2 °F 25.4 °F 17.6 °F 60% 30.37 in 10.0 mi NE 4.6 mph - N/A   Clear
7:55 PM 30.2 °F - 19.4 °F 64% 30.38 in 10.0 mi Calm Calm - N/A   Clear
8:15 PM 30.2 °F - 19.4 °F 64% 30.37 in 10.0 mi Calm Calm - N/A   Clear
8:35 PM 26.6 °F 22.6 °F 17.6 °F 69% 30.37 in 10.0 mi West 3.5 mph - N/A   Clear
8:55 PM 28.4 °F 24.6 °F 17.6 °F 64% 30.35 in 10.0 mi NW 3.5 mph - N/A   Clear
9:15 PM 26.6 °F 21.2 °F 17.6 °F 69% 30.34 in 10.0 mi NNW 4.6 mph - N/A   Clear
9:35 PM 26.6 °F - 17.6 °F 69% 30.33 in 10.0 mi Calm Calm - N/A   Clear
9:55 PM 24.8 °F - 17.6 °F 74% 30.34 in 10.0 mi Calm Calm - N/A   Clear
10:15 PM 23.0 °F 18.4 °F 17.6 °F 80% 30.33 in 10.0 mi NNE 3.5 mph - N/A   Clear
10:35 PM 24.8 °F - 17.6 °F 74% 30.33 in 10.0 mi Calm Calm - N/A   Clear
10:55 PM 26.6 °F - 17.6 °F 69% 30.33 in 10.0 mi Calm Calm - N/A   Clear
11:15 PM 23.0 °F 18.4 °F 17.6 °F 80% 30.33 in 10.0 mi North 3.5 mph - N/A   Clear
11:35 PM 23.0 °F - 17.6 °F 80% 30.32 in 10.0 mi Calm Calm - N/A   Clear
11:55 PM 21.2 °F - 15.8 °F 80% 30.30 in 10.0 mi Calm Calm - N/A   Clear